Simultaneous Nadir Overpasses (SNOs) Predictions

Prediction of SNOs between METOP-B and TERRA Satellite Orbit:

Table of predicted SNOs for the next 14.0 days since TLE Epoch: 9/5/2016
Index Date (METOP-B) Time (METOP-B) Lat,Lon (METOP-B) SZA (METOP-B ) Date (TERRA) Time (TERRA) Lat,Lon (TERRA) SZA (TERRA ) Distance(km) Time Diff (sec)
1 09/07/2016 05:38:29 81.27, 141.91 78.18 09/07/2016 05:39:22 81.27, 141.80 78.19 2.02 53
2 09/07/2016 06:29:09 -81.28, -50.26 101.75 09/07/2016 06:28:48 -81.29, -50.27 101.76 0.60 21
3 09/10/2016 01:12:53 81.27,-151.60 79.27 09/10/2016 01:13:34 81.27,-151.69 79.28 1.49 41
4 09/10/2016 02:03:34 -81.28, 15.84 100.71 09/10/2016 02:03:01 -81.27, 15.88 100.72 1.06 33
5 09/12/2016 20:47:16 81.27, -85.15 80.37 09/12/2016 20:47:45 81.27, -85.25 80.37 1.83 29
6 09/1
